RESURS-P 4

Last updated on Sat Jun 21 2025 00:02:29 GMT+0000 (Coordinated Universal Time)

1 59371U 24061A 25171.59750733 .00002713 00000+0 89813-4 0 9998 2 59371 97.2309 121.6879 0001591 136.3012 223.8356 15.32158513 68381
UTC large
Height (km)
Speed (km/s)
/
Latitude / Longitude
Inclination (degrees)
Orbital Period (minutes)
Azimuth
Elevation
Range (km)
Doppler Factor

Next 0 passes for location: London (51.5072 / 0.1276)

Sorry there are no passes over London.